419P/PanSTARRS (2021)

Japanese version
Home page
Updated on May 4, 2021

---------------------------------------------------------------------

* Profile

Designation P/2021 A11
Designation 419P/2021 A11
Recovery Date January 13, 2021
Magnitude 21.3 mag
Recoverer E. Schwab (Egelsbach, Germany)

* Orbital Elements

Epoch 2021 Nov. 2.0 TT = JDT 2459520.5
T 2021 Oct. 27.46743 TT                                 Rudenko
q   2.5432729            (2000.0)            P               Q
n   0.14918184     Peri.  187.50275     -0.67062679     +0.74111784
a   3.5209410      Node    40.38961     -0.67801844     -0.59508116
e   0.2776724      Incl.    2.80294     -0.30091644     -0.31084203
P   6.61
From 235 observations 2015 Jan. 24-2021 Apr. 15, mean residual 1".1.

* Magnitudes Graph

        m1 = 10.0 + 5 log d + 20.0 log r

        * Gray curve is:  m1 = 7.5 + 5 log d + 20.0 log r

---------------------------------------------------------------------

The orbital elements are published on M.P.E.C. 2021-J28.
The magnitudes graphs are made with Comet for Windows.

---------------------------------------------------------------------

Copyright(C) Seiichi Yoshida (comet@aerith.net). All rights reserved.